Wind_Speed
7 6 5 5 4 3 3 2 2 1 1 1 2 2 2 2 2 2 2 3 4 4 5 6 6 7 8 8 9 10 11 10 10 10 10 10 10 10 10 9 9 8 8
7 6 5 4 4 3 2 1 1 1 1 1 1 1 2 2 2 2 3 3 3 4 5 5 5 6 7 8 9 10 11 10 10 11 11 11 11 11 11 11 11 10 9
8 7 5 4 3 2 2 2 1 1 1 1 1 1 2 2 2 3 3 3 3 3 4 5 5 6 6 7 8 9 10 10 10 10 10 11 11 11 12 12 12 11 11
9 7 5 4 3 3 3 2 2 1 1 1 1 1 1 2 3 3 4 4 3 3 4 5 5 5 5 6 6 8 9 9 9 9 10 10 11 11 12 12 13 13 13
9 7 5 5 4 4 3 3 3 2 2 2 1 1 2 2 2 3 3 4 4 3 4 4 4 4 4 4 5 6 8 9 9 9 9 10 11 12 13 14 14 14 14
10 8 6 6 5 4 4 4 3 3 3 2 2 3 3 3 2 3 3 3 4 4 4 3 3 3 3 3 4 5 6 8 8 9 9 10 11 11 12 12 14 14 15
12 10 8 7 6 6 5 4 4 4 4 4 4 4 4 3 3 3 3 3 3 3 3 3 3 3 3 3 3 3 4 5 6 7 8 9 10 11 12 12 13 14 14
13 11 9 8 8 7 7 6 6 5 5 4 4 4 4 4 4 3 3 3 3 3 3 2 2 2 2 3 3 3 3 4 5 6 6 8 9 11 11 13 13 14 14
14 12 11 10 9 9 8 8 7 7 6 5 5 4 3 3 2 2 2 2 1 1 1 1 1 2 3 3 4 5 5 5 6 6 7 8 8 8 9 10 12 13 14
15 14 12 12 11 10 10 9 8 8 7 7 6 5 4 3 2 1 1 1 2 2 2 2 3 3 4 5 5 6 7 7 7 8 9 9 10 10 10 11 11 12 13
16 15 13 13 13 12 11 11 10 9 9 8 7 6 5 5 5 4 4 4 5 5 5 5 5 5 6 6 7 8 9 10 10 11 11 12 12 12 12 13 13 13 14
16 15 14 14 14 14 13 12 11 11 10 10 10 9 9 8 8 8 7 7 8 8 8 8 8 9 10 10 10 10 11 11 12 13 13 14 14 14 15 15 16 16 17
17 17 16 15 15 15 14 14 13 13 13 12 13 12 12 11 11 11 11 11 11 12 12 12 12 13 14 14 14 15 15 15 15 16 16 17 18 18 18 19 19 19 20
18 17 17 16 16 16 16 15 15 15 15 15 15 15 15 14 14 14 15 15 15 15 16 16 16 16 17 18 18 19 19 20 20 20 21 22 22 22 23 23 23 24 24
18 18 18 17 17 18 18 17 16 16 17 17 17 17 17 17 17 18 18 19 19 19 19 19 19 20 20 21 22 23 23 24 24 25 26 26 26 27 27 27 28 28 28
17 18 19 18 18 19 20 19 18 18 18 18 18 19 19 20 20 21 21 21 21 21 22 22 23 23 23 24 25 26 27 27 28 29 30 30 30 30 31 31 32 32 32
18 19 18 19 19 19 19 20 20 21 21 21 20 21 22 23 23 23 23 24 24 24 25 26 26 26 26 27 28 28 29 30 31 32 32 33 33 34 35 35 35 36 36
17 17 18 19 19 19 19 20 21 21 21 22 22 23 23 24 24 25 25 26 26 26 27 28 29 29 29 30 30 31 32 33 33 34 34 35 36 37 38 38 39 39 39
16 16 17 19 20 20 21 21 22 22 23 23 23 24 24 25 25 26 26 27 27 28 28 29 31 32 33 33 33 34 35 36 36 37 38 38 39 40 41 41 42 43 43
16 16 17 18 19 20 20 22 23 24 25 25 25 25 25 25 26 26 27 28 28 29 30 31 33 34 35 36 37 38 38 39 40 41 42 42 42 43 44 45 45 46 47
15 16 17 18 19 20 21 22 23 23 24 25 25 26 26 27 27 28 29 30 30 31 33 34 36 37 38 39 40 41 41 42 43 44 45 46 46 47 48 49 50 50 51
15 16 17 18 19 19 20 21 22 23 24 25 26 27 27 28 29 31 31 32 34 35 37 38 40 41 41 42 43 44 44 45 46 47 49 49 51 52 53 54 54 55 56
15 16 17 18 18 19 20 20 22 24 24 26 27 28 29 31 32 32 34 36 37 39 40 41 42 43 44 45 46 48 49 50 50 51 53 54 55 56 57 58 59 59 60
17 18 18 18 19 19 20 21 23 24 26 27 28 30 32 34 35 36 37 39 40 41 42 43 45 46 47 48 50 51 52 54 55 57 58 59 59 61 61 62 63 63 63
20 20 21 21 22 22 23 24 26 27 28 30 31 33 35 36 37 38 40 41 43 44 45 46 48 49 51 53 54 56 57 58 59 61 63 64 64 64 64 64 64 65 64
22 22 23 24 25 26 27 28 30 31 33 34 35 36 37 38 39 40 42 44 45 47 49 50 52 53 55 57 59 60 62 63 64 64 65 66 67 67 65 64 65 65 65
Wind_Direction
247 256 261 261 261 271 282 273 263 276 262 260 245 213 201 212 206 220 207 204 205 203 203 207 212 218 221 225 227 228 227 228 230 234 240 245 248 249 250 252 253 256 256
239 245 249 252 253 256 248 203 203 282 269 267 250 225 210 204 206 197 198 194 199 204 208 211 211 215 219 223 225 227 227 228 232 236 241 247 249 251 252 253 255 255 257
229 236 235 235 238 223 198 184 192 207 239 246 241 226 210 203 201 200 196 186 186 195 204 211 210 215 223 227 229 229 230 230 233 239 244 246 249 251 253 254 254 256 259
222 224 222 218 218 208 201 197 190 198 217 205 186 189 198 201 194 193 190 191 191 187 193 202 207 215 222 226 229 227 229 232 236 243 245 245 248 251 254 255 256 258 260
218 215 215 212 208 201 196 194 189 197 198 180 157 136 148 160 166 172 176 185 186 182 182 190 201 203 211 219 225 227 231 236 243 247 247 248 249 252 256 257 258 258 258
211 210 212 211 207 200 191 190 190 187 173 159 144 134 132 134 148 154 158 168 171 172 178 185 194 198 202 212 221 231 239 245 247 250 253 256 256 256 259 261 260 258 259
211 211 214 213 207 200 195 190 186 183 170 158 144 135 124 119 122 128 137 150 158 164 177 184 190 193 201 210 217 234 243 245 247 253 257 260 261 261 261 264 264 261 261
209 211 212 211 207 202 200 193 188 185 177 168 157 148 140 129 110 109 114 128 140 136 142 150 160 183 209 222 226 236 241 250 254 261 268 268 268 267 266 265 265 264 264
209 209 211 211 209 206 203 199 195 191 189 185 178 173 168 157 134 120 135 146 165 168 172 189 227 246 248 248 248 254 259 267 272 274 277 279 280 279 279 276 270 267 267
211 212 214 214 213 212 211 209 207 204 202 202 199 199 204 206 205 220 219 239 239 251 254 255 262 272 269 267 265 267 267 268 272 274 276 278 281 282 281 280 280 277 274
211 214 217 217 218 219 218 218 218 217 218 220 223 226 230 234 240 248 256 260 262 269 269 264 269 277 283 282 279 277 274 274 276 276 276 277 278 279 279 278 278 278 277
214 217 220 221 222 224 224 225 226 227 229 233 237 242 246 249 252 256 260 266 270 270 271 269 271 275 279 281 281 280 281 280 279 277 277 278 279 279 279 278 278 276 275
216 219 222 225 227 229 232 233 234 236 239 242 244 248 253 257 258 260 261 264 268 270 272 274 273 273 275 276 278 279 279 279 280 280 280 280 280 280 279 278 277 276 275
221 224 227 229 231 233 236 239 241 243 245 248 250 253 256 260 262 264 265 267 269 270 272 274 274 273 274 274 275 276 277 277 277 278 279 279 279 279 279 278 276 275 274
226 230 232 234 235 237 239 241 245 247 251 254 256 258 262 265 267 269 271 270 271 272 273 274 274 274 274 274 275 276 278 279 279 279 278 279 278 278 277 276 276 275 274
232 234 236 237 238 240 242 244 248 252 255 258 261 263 266 270 271 273 273 272 272 273 275 275 276 274 274 273 274 276 277 278 278 278 278 278 278 277 277 276 275 275 274
234 237 239 241 242 243 244 247 251 254 256 259 262 266 269 271 273 274 275 275 274 274 276 277 276 275 275 275 276 275 275 276 277 277 277 277 277 276 276 276 274 274 273
235 238 238 240 243 246 249 252 254 254 258 260 263 266 270 273 275 275 276 277 277 277 277 278 278 277 277 276 276 276 277 277 276 276 277 276 276 275 275 275 274 274 273
236 239 244 245 246 251 256 256 255 255 259 262 265 268 269 272 274 275 277 278 279 279 279 279 280 280 280 279 279 279 279 278 278 278 277 276 276 275 274 274 273 273 273
241 244 249 251 253 256 260 260 259 259 261 264 266 267 268 270 273 275 278 280 280 280 281 281 281 281 281 281 281 281 280 279 279 279 278 278 277 276 275 274 274 273 273
247 248 250 254 259 261 264 263 263 265 266 266 267 269 269 271 273 275 279 280 281 281 282 282 282 281 282 281 281 281 280 280 280 280 279 278 277 276 275 274 273 273 273
257 257 256 258 261 263 266 267 266 267 269 268 269 270 271 274 276 278 279 280 281 282 282 283 283 283 282 282 282 281 280 280 280 280 280 279 278 277 276 275 274 273 271
263 266 266 265 266 269 273 274 273 273 272 272 272 273 274 275 277 280 281 282 283 283 283 283 283 283 283 283 282 282 281 281 280 279 279 278 278 277 277 275 274 273 272
267 267 269 270 272 274 276 278 279 278 277 276 276 278 279 279 280 281 282 283 283 283 283 283 283 283 283 283 283 283 283 282 281 280 279 278 277 277 276 276 275 273 272
270 272 271 273 274 277 278 279 280 281 281 281 281 281 280 280 281 282 283 284 284 284 284 284 284 284 284 284 284 284 283 283 282 281 280 279 278 276 276 275 274 273 272
274 274 273 276 277 278 279 279 280 281 282 282 282 282 281 282 282 283 285 285 285 286 286 286 286 286 286 286 285 285 284 284 283 282 280 280 279 278 276 275 274 273 272
Height
5885 5885 5886 5886 5886 5886 5885 5885 5885 5885 5885 5884 5884 5884 5884 5884 5885 5885 5886 5886 5887 5887 5888 5888 5888 5889 5890 5890 5891 5892 5893 5894 5895 5896 5897 5897 5898 5898 5898 5898 5899 5899 5899
5884 5884 5885 5885 5885 5885 5885 5884 5885 5885 5884 5884 5884 5883 5884 5884 5884 5885 5885 5885 5886 5886 5887 5887 5887 5888 5888 5889 5890 5891 5892 5892 5893 5894 5895 5895 5896 5896 5897 5897 5897 5897 5897
5882 5883 5884 5884 5884 5884 5884 5884 5884 5884 5884 5884 5884 5883 5883 5883 5884 5884 5884 5885 5885 5885 5886 5886 5886 5887 5887 5888 5888 5889 5890 5891 5891 5892 5893 5893 5893 5894 5894 5895 5895 5895 5896
5880 5881 5882 5883 5883 5883 5884 5884 5884 5884 5884 5884 5884 5883 5883 5883 5883 5883 5884 5884 5884 5885 5885 5885 5886 5886 5886 5886 5887 5888 5888 5889 5890 5890 5890 5891 5891 5892 5892 5893 5893 5893 5893
5879 5880 5881 5882 5882 5883 5883 5884 5884 5884 5884 5884 5883 5883 5883 5883 5883 5883 5883 5883 5884 5884 5884 5884 5885 5885 5885 5885 5886 5886 5887 5888 5888 5888 5888 5889 5889 5889 5890 5890 5890 5890 5891
5877 5878 5879 5880 5881 5882 5882 5883 5883 5883 5883 5883 5883 5883 5883 5883 5883 5883 5883 5883 5883 5883 5883 5884 5884 5884 5884 5885 5885 5885 5886 5886 5886 5886 5887 5887 5887 5887 5887 5887 5887 5887 5888
5875 5876 5878 5879 5880 5881 5881 5882 5882 5883 5883 5883 5883 5884 5884 5884 5883 5883 5883 5883 5883 5883 5883 5883 5884 5884 5884 5884 5884 5884 5884 5884 5885 5885 5885 5885 5885 5885 5885 5885 5884 5884 5885
5873 5874 5876 5877 5878 5880 5880 5881 5882 5882 5882 5883 5883 5884 5884 5885 5884 5884 5884 5883 5883 5883 5883 5883 5883 5883 5883 5884 5884 5884 5884 5883 5883 5883 5883 5883 5882 5882 5882 5882 5882 5881 5881
5870 5872 5874 5875 5877 5878 5879 5880 5881 5881 5882 5883 5883 5884 5884 5884 5884 5884 5884 5884 5883 5883 5883 5883 5883 5883 5883 5882 5882 5882 5882 5882 5882 5882 5882 5881 5881 5880 5880 5879 5879 5878 5878
5868 5870 5872 5874 5875 5876 5877 5878 5879 5880 5881 5882 5882 5883 5884 5884 5884 5884 5884 5884 5883 5883 5883 5882 5882 5882 5881 5881 5881 5881 5881 5880 5880 5880 5879 5879 5879 5878 5877 5877 5876 5875 5875
5866 5868 5870 5871 5873 5874 5875 5877 5878 5879 5880 5880 5881 5882 5882 5883 5883 5883 5883 5883 5883 5882 5882 5881 5881 5880 5880 5880 5879 5879 5878 5878 5878 5877 5877 5876 5876 5875 5874 5873 5873 5872 5872
5863 5865 5867 5869 5870 5872 5873 5875 5876 5877 5878 5878 5879 5880 5880 5881 5881 5881 5881 5881 5881 5880 5880 5879 5879 5878 5878 5877 5877 5876 5876 5875 5875 5874 5873 5873 5872 5871 5871 5870 5869 5868 5868
5861 5863 5865 5866 5868 5869 5871 5872 5873 5874 5875 5876 5876 5877 5877 5878 5878 5878 5878 5878 5878 5877 5877 5876 5876 5875 5875 5874 5873 5873 5872 5871 5871 5870 5869 5869 5868 5867 5866 5865 5864 5863 5863
5857 5859 5861 5863 5865 5866 5868 5869 5870 5871 5871 5872 5872 5873 5873 5874 5874 5874 5874 5874 5874 5873 5873 5872 5871 5871 5870 5869 5869 5868 5867 5866 5866 5865 5864 5863 5862 5861 5860 5859 5858 5857 5857
5854 5856 5858 5860 5861 5863 5864 5865 5866 5867 5868 5868 5868 5869 5869 5869 5869 5869 5869 5869 5869 5868 5868 5867 5866 5865 5865 5864 5863 5862 5861 5860 5859 5858 5857 5856 5855 5854 5853 5852 5851 5850 5849
5851 5853 5854 5856 5857 5859 5860 5861 5862 5863 5863 5864 5864 5864 5864 5864 5864 5864 5863 5863 5863 5863 5862 5861 5861 5860 5859 5858 5857 5856 5854 5853 5852 5851 5850 5848 5847 5846 5845 5843 5842 5841 5840
5848 5849 5851 5852 5853 5854 5855 5856 5857 5858 5858 5859 5859 5859 5858 5858 5858 5857 5857 5856 5856 5855 5854 5853 5853 5852 5852 5850 5849 5848 5847 5845 5844 5842 5841 5839 5838 5836 5835 5834 5833 5831 5830
5844 5845 5846 5847 5849 5850 5850 5851 5852 5852 5853 5853 5853 5853 5853 5852 5851 5851 5850 5849 5849 5848 5847 5845 5844 5843 5843 5842 5840 5839 5837 5836 5834 5832 5831 5829 5827 5826 5825 5823 5822 5820 5819
5840 5841 5842 5843 5844 5845 5846 5846 5846 5847 5847 5847 5847 5846 5846 5845 5845 5844 5843 5842 5841 5840 5839 5838 5836 5834 5833 5832 5830 5829 5827 5825 5824 5822 5820 5818 5816 5814 5812 5811 5809 5808 5807
5836 5837 5838 5838 5839 5840 5840 5840 5840 5841 5841 5841 5840 5840 5839 5838 5838 5837 5836 5835 5833 5832 5831 5829 5827 5825 5823 5821 5820 5818 5816 5814 5812 5810 5808 5806 5804 5802 5800 5798 5796 5794 5793
5832 5833 5834 5834 5835 5835 5835 5835 5835 5834 5834 5834 5834 5833 5832 5831 5830 5830 5828 5827 5825 5823 5821 5819 5817 5815 5813 5811 5809 5806 5804 5802 5800 5797 5795 5793 5790 5788 5786 5784 5782 5780 5778
5828 5829 5829 5830 5830 5830 5830 5829 5829 5828 5828 5827 5827 5826 5825 5824 5823 5821 5820 5818 5816 5814 5812 5809 5807 5804 5802 5799 5797 5794 5792 5790 5787 5784 5781 5779 5775 5773 5770 5767 5765 5763 5760
5824 5825 5825 5825 5825 5825 5824 5823 5823 5823 5822 5821 5820 5819 5817 5816 5814 5812 5810 5808 5806 5804 5801 5798 5795 5792 5789 5786 5784 5781 5777 5775 5772 5769 5765 5763 5759 5756 5753 5750 5746 5744 5742
5820 5820 5820 5820 5819 5819 5818 5818 5817 5816 5815 5814 5812 5811 5809 5807 5805 5803 5800 5798 5795 5792 5789 5786 5783 5779 5776 5772 5769 5766 5762 5759 5755 5751 5748 5746 5742 5738 5735 5730 5726 5724 5722
5814 5814 5814 5813 5812 5812 5811 5811 5810 5809 5807 5806 5804 5802 5800 5797 5795 5792 5789 5786 5782 5779 5775 5772 5768 5764 5760 5756 5752 5749 5745 5741 5737 5732 5727 5724 5721 5718 5715 5711 5706 5702 5700
5807 5807 5807 5806 5805 5804 5804 5803 5801 5800 5798 5796 5794 5792 5789 5786 5783 5780 5777 5773 5769 5765 5761 5757 5752 5748 5743 5739 5734 5730 5726 5721 5717 5712 5707 5703 5699 5695 5694 5691 5686 5681 5678